Regional Weather Roundup
Issued by NWS Green Bay, WI

Home | Current Version | Previous Version | Graphics & Text | Print | Product List | Glossary Off
Versions: 1 2 3 4 5 6 7 8 9 10 11 12 13 14 15 16 17 18 19 20 21 22 23 24 25 26 27 28 29 30 31 32 33 34 35 36 37 38 39 40 41 42 43 44 45 46 47 48 49 50

000
ASUS43 KGRB 231910
RWRGRB

NORTH-CENTRAL AND NORTHEAST WISCONSIN REGIONAL WEATHER ROUNDUP
NATIONAL WEATHER SERVICE GREEN BAY WI
200 PM CDT WED JUL 23 2014

WIZ005-009-010>012-018-019-232000-
NORTH CENTRAL WISCONSIN

CITY           SKY/WX    TMP DP  RH WIND       PRES   REMARKS
IRONWOOD       NOT AVBL
MANITOWISH WTR CLOUDY    67  55  64 NE3       30.24S
ARBOR VITAE    MOSUNNY   74  53  47 CALM      30.24S
EAGLE RIVER    CLOUDY    67  49  51 NE7       30.24S
LAND O LAKES   CLOUDY    67  49  51 CALM      30.25S
RHINELANDER    CLOUDY    68  51  54 N6        30.24F
PHILLIPS       PTSUNNY   73  53  50 N8        30.23R
ANTIGO         PTSUNNY   70  53  54 N9        30.23S
TOMAHAWK       PTSUNNY   70  54  58 CALM      30.24S
MERRILL        PTSUNNY   71  54  56 N7        30.22S
$$

WIZ013-073-232000-
NORTHEAST WISCONSIN

CITY           SKY/WX    TMP DP  RH WIND       PRES   REMARKS
IRON MOUNTAIN  PTSUNNY   69  46  43 N12       30.21F
MARINETTE      MOSUNNY   68  52  56 E15       30.19S
OCONTO         MOSUNNY   71  54  54 E9        30.19S
$$

WIZ017-030-035>037-045-232000-
CENTRAL WISCONSIN

CITY           SKY/WX    TMP DP  RH WIND       PRES   REMARKS
MEDFORD        PTSUNNY   71  53  52 N5        30.23S
WAUSAU         PTSUNNY   74  53  48 N8        30.20S
MOSINEE        NOT AVBL
MARSHFIELD     PTSUNNY   76  54  46 N3        30.21S
WISC RAPIDS    MOSUNNY   79  52  38 N10       30.21F
STEVENS POINT  PTSUNNY   73  52  46 N12       30.21S
WAUPACA        CLOUDY    78  51  38 N7G17     30.20R
SHAWANO        CLOUDY    74  50  43 N10G22    30.19F
CLINTONVILLE   CLOUDY    73  46  38 NE8       30.19S
$$

WIZ038-039-048-051-232000-
FOX VALLEY

CITY           SKY/WX    TMP DP  RH WIND       PRES   REMARKS
NWS GREEN BAY  PTSUNNY   73  54  51 NE15      30.19S
APPLETON       PTSUNNY   73  48  40 N12G17    30.19F
OSHKOSH        PTSUNNY   75  52  44 N14G22    30.18S
FOND DU LAC    SUNNY     75  51  43 NE15G22   30.20S
$$

WIZ022-050-052-232000-
EAST CENTRAL WISCONSIN

CITY           SKY/WX    TMP DP  RH WIND       PRES   REMARKS
STURGEON BAY   SUNNY     70  48  46 N16       30.20F
MANITOWOC      SUNNY     66  53  63 NE13      30.20R
SHEBOYGAN      SUNNY     65  53  65 NE15      30.20R
$$

LMZ563-521-522-541>543-232000-
LAKESHORE

STATION/POSITION TIME  TEMP    WIND        PRES    VSBY  WAVE
                       AIR SEA DIR/SP/G                  HT/PER
                 (UTC) (F)     (DEG/KT/KT) (MB)    (MI)  (FT/S)
SHEBOYGAN LKSHOR 1900   57      30/  7/  9 1023.0R
KEWAUNEE LKSHORE 1900   59      30/  5/ 10 1023.3F
NORTHPORT PIER   1900   64     360/ 13/ 15 1022.7S
N MID LAKE BUOY  1900   56 54  260/  4/  4 1021.9F         1/ 4
STURGEON BAY CG  1800   70 64  360/ 11     1022.6      6   2
CHAMBERS ISLAND  1900   64      30/ 14/ 17 1022.7S
MENOMINEE LKSHOR 1900   64      40/ 14/ 16 1023.1F
$$


USA.gov is the U.S. government's official web portal to all federal, state and local government web resources and services.